User: anonymous   Login
Location: Unspecified
(0.0000°N, 0.0000°E)
Time: 22:23:47
(UTC+00:00)
Language:

BOTSAT-1 - Orbit

View from above orbital plane
View from above orbital plane
View from above satellite
View from above satellite

Ground track
Ground track

The orbit is defined by the following mean orbital elements,

1 63216U          26145.42029064 +.00000000 +00000-0 +31696-3 0 00004
2 63216  97.3913  39.4953 0002302 153.2760 206.8598 15.26733438    06
Epoch (UTC): 25 May 2026 10:05:13
Eccentricity: 0.0002302
inclination: 97.3913°
perigee height: 484 km
apogee height: 487 km
right ascension of ascending node: 39.4953°
argument of perigee: 153.2760°
revolutions per day: 15.26733438
mean anomaly at epoch: 206.8598°

The dashed part of the orbit path shows where the satellite is in the earth's shadow,  

DLR